Regional Weather Roundup
Issued by NWS Charleston, SC

Current Version | Previous Version | Graphics & Text | Print | Product List | Glossary On
Versions: 1 2 3 4 5 6 7 8 9 10 11 12 13 14 15 16 17 18 19 20 21 22 23 24 25 26 27 28 29 30 31 32 33 34 35 36 37 38 39 40 41 42 43 44 45 46 47 48 49 50
580
ASUS42 KCHS 020113
RWRCHS

REGIONAL WEATHER ROUNDUP
NATIONAL WEATHER SERVICE CHARLESTON SC
900 PM EDT SUN MAY 01 2016

NOTE: "FAIR" INDICATES FEW OR NO CLOUDS BELOW 12,000 FEET WITH NO
SIGNIFICANT WEATHER AND/OR OBSTRUCTIONS TO VISIBILITY.

NOT ALL STATIONS ARE QUALITY CONTROLLED. USE DATA WITH CAUTION...
ESPECIALLY DEWPOINT OBSERVATIONS.

SCZ027-030-031-034>040-042>050-020200-
...SOUTHEAST SOUTH CAROLINA...

CITY           SKY/WX    TMP DP  RH WIND       PRES   REMARKS
N CHARLESTON   CLOUDY    74  69  85 S8        30.05R
WATERFRONT PRK   N/A     74  71  90 S6        30.04R
MOUNT PLEASANT FAIR      73  72  94 S7        30.06S
JOHNS ISLAND   MOCLDY    73  72  94 SE6       30.06S
PINOPOLIS        N/A     72  70  94 CALM      29.97F
MONCKS CORNER  FAIR      66  64  94 CALM      30.04S
SUMMERVILLE    FAIR      72  72 100 CALM      30.05F
BEAUFORT MCAS  CLOUDY    75  73  93 S6        30.05S
BEAUFORT ARPT  FAIR      73  72  94 S5        30.05R FOG
HILTON HEAD IS CLOUDY    75  73  94 SE3       30.07R
WALTERBORO     PTCLDY    72  72 100 SE3       30.05S
ALLENDALE      FAIR      72  68  88 SE5       30.03S

...SOUTHERN MIDLANDS AND PEE DEE...

CITY           SKY/WX    TMP DP  RH WIND       PRES   REMARKS
GEORGETOWN     FAIR      66  64  94 SE5       30.07S
KINGSTREE      FAIR      66  63  88 S3        30.04S
ORANGEBURG     CLOUDY    70  67  90 S5        30.04S
BARNWELL       FAIR      73  73 100 CALM      30.04S
AIKEN          FAIR      70  66  88 S10       30.07F
MANNING        NOT AVBL
COLUMBIA       CLOUDY    74  65  73 S8        30.01F
SUMTER         CLOUDY    70  68  94 S6        30.01R
FLORENCE       CLOUDY    69  66  90 S6        30.04R
MYRTLE BEACH   MOCLDY    70  61  73 SW9       30.06F
N MYRTLE BEACH MOCLDY    69  67  93 S10       30.03F

$$

GAZ063-065-086>088-099>101-113>116-118-119-134>141-150-020200-
...SOUTHEAST GEORGIA...

CITY           SKY/WX    TMP DP  RH WIND       PRES   REMARKS
SAVANNAH ARPT  MOCLDY    71  66  84 W5        30.07R
HUNTER AAF     MOCLDY    75  72  92 S6        30.04S
FORT STEWART   LGT RAIN  68  66  91 CALM      30.05S
STATESBORO     PTCLDY    72  71  98 S6        30.05R
SYLVANIA       CLOUDY    70  69  96 S5        30.06R
CLAXTON        FAIR      69  68  98 E6        30.05S

...CSRA...CENTRAL AND FAR SOUTHEAST GEORGIA...

CITY           SKY/WX    TMP DP  RH WIND       PRES   REMARKS
THOMSON        MOCLDY    80  72  75 S7        30.07R
AUGUSTA-BUSH   CLOUDY    74  67  78 S9        30.02R
AUGUSTA-DANIEL CLOUDY    76  66  71 SE7       30.04R
SWAINSBORO     FAIR      72  66  83 SE9       30.05R
VIDALIA        PTCLDY    70  66  88 SE8       30.05R
EASTMAN        FAIR      77  71  82 SE7       30.05R
HAZLEHURST     FAIR      73  67  81 SE5       30.04R
ALMA           PTCLDY    70  68  93 E7        30.05S
WAYCROSS       HVY RAIN  71  70  95 E15       30.05R
JESUP          CLOUDY    77  70  78 NE6       30.08R
BAXLEY         MOCLDY    72  70  94 E6        30.07R
BRUNSWICK      CLOUDY    81  73  78 E5        30.06R
SAINT SIMONS   LGT RAIN  75  73  93 SE8       30.05R

$$

SCZ027-028-034-036>038-045-046-048>050-GAZ119-141-020200-
...LAKE AND SUPPLEMENTAL COASTAL OBSERVATIONS...

STATION/POSITION TIME  TEMP    WIND        PRES    WAVE   SWELL
                       AIR SEA DIR/SP/G            HT/PER HT/PER/DIR
                 (UTC) (F)     (DEG/KT/KT) (MB)    (FT/S) (FT/S/D)
WINYAH BAY       NOT AVBL
LAKE MURRAY      0000   74     100/  6/  7 1015.9R
ACE BASIN NERRS  2345   75        CALM     1018.0
FORT PULASKI     0000      74                N/A
SAPELO ISLAND    0000   76     120/  5     1017.0S

$$

ANZ835-935-AMZ111-154-330-350-352-354-370-450-454-472-020200-
...C-MAN AND BUOY OBSERVATIONS...

STATION/POSITION TIME  TEMP    WIND        PRES    WAVE   SWELL
                       AIR SEA DIR/SP/G            HT/PER HT/PER/DIR
                 (UTC) (F)     (DEG/KT/KT) (MB)    (FT/S) (FT/S/D)
BUOY 41004       0050   74 73  150/  6/  8 1017.8F   4/11   3/11
BUOY 41008       NOT AVBL
FOLLY BEACH CMAN 0000   74     170/  7/  8 1018.0F
CAPERS NEARSHORE 0008   72 72  130/  4/  6 1017.9F
FRIPP NEARSHORE  0008   74 74  160/  6/  8 1017.3S


STATION/POSITION TIME  TEMP    WIND        PRES    WAVE   SWELL
                       AIR SEA DIR/SP/G            HT/PER HT/PER/DIR
                 (UTC) (F)     (DEG/KT/KT) (MB)    (FT/S) (FT/S/D)
5E ST. MARYS GA  0021      74                N/A     3/ 5
FRYING PAN BUOY  0000   74 72  190/  6/  8 1018.1R
BUOY 41025       0050   74 74  180/ 17/ 21 1017.2R   4/ 9   3/ 80/ 9
CAPE LOOKOUT NC  0000   70     190/ 10/ 12 1017.0F
BUOY 41002       0050   72 74  140/ 10/ 10 1020.8R   4/11   3/11
BUOY 41010       0020   77 77  120/ 12/ 14 1018.0R
ST AUGUSTINE FL  0100   74 74  140/ 10/ 11 1018.2R


$$




USA.gov is the U.S. government's official web portal to all federal, state and local government web resources and services.